sat.trackr.live / text

‹ back to catalog

STARLINK-30308

NORAD 57742 · 2023-131L

PAYLOAD ACTIVE UNKNOWN

§ Identity

Operator
Country
US
Launch date
2023-09-01
Launch site
AFETR
Launch vehicle
Mass (kg)
RCS (m²)

Purposes: comms

External: N2YO · Heavens-Above · Gunter

§ Orbital elements

Epoch: 2026-05-25T04:11:45.458880Z

Period
94.27 min
Inclination
43.0024°
Eccentricity
0.0001057
Mean motion
15.27573572 rev/d
Perigee alt
482.3 km
Apogee alt
483.8 km
Semi-major
6,861.2 km
B*
4.3316e-5
RAAN
100.5282°
Arg perigee
265.2216°
Mean anomaly
94.8515°
Rev number
15,162

§ Raw data

STARLINK-303081 57742U 23131L   26145.17483170  .00000930  00000+0  43316-4 0  99962 57742  43.0024 100.5282 0001057 265.2216  94.8515 15.27573572151626

JSON: /api/v1/satellites/57742 · /tle

For live sub-satellite position, see the globe view (requires WebGL).

§ Visibility from observer

Set your observer location to see the next 7 days of passes ≥ 10°. The values pass through the URL so the page stays shareable.

No JS? Fill the form by hand. The geolocation button needs JavaScript.